User: anonymous   Login
Location: Unspecified
(0.0000°N, 0.0000°E)
Time: 23:31:53
(UTC+02:00)
Language:

ARIANE 5 R/B - Orbit

View from above orbital plane
View from above orbital plane
View from above satellite
View from above satellite

Ground track
Ground track

The orbit data is extracted from the following two-line orbital elements,

1 28886U 05041C   16144.45048512 -.00000101 +00000-0 -51798-3 0  9994
2 28886 007.6901 148.1479 7179312 170.6086 245.1621 02.24331189086928
Epoch (UTC): 23 May 2016 10:48:41
Eccentricity: 0.7179312
inclination: 7.6901°
perigee height: 575 km
apogee height: 35968 km
right ascension of ascending node: 148.1479°
argument of perigee: 170.6086°
revolutions per day: 2.24331189
mean anomaly at epoch: 245.1621°
orbit number at epoch: 8692

The dashed part of the orbit path shows where the satellite is in the earth's shadow,  

DLR